Regional Weather Roundup
Issued by NWS

Home | Current Version | Previous Version | Graphics & Text | Print | Product List | Glossary On
Versions: 1 2 3 4 5 6 7 8 9 10 11 12 13 14 15 16 17 18 19 20 21 22 23 24 25 26 27 28 29 30 31 32 33 34 35 36 37 38 39 40 41 42 43 44 45 46 47 48 49 50
000
ASUS43 KMPX 250601
RWRMN
WEATHER ROUNDUP FOR MINNESOTA
NATIONAL WEATHER SERVICE TWIN CITIES/CHANHASSEN MN
100 AM CDT WED APR 25 2018


NOTE: "FAIR" INDICATES FEW OR NO CLOUDS BELOW 12,000 FEET WITH NO
SIGNIFICANT WEATHER AND/OR OBSTRUCTIONS TO VISIBILITY. N/A MEANS
CURRENT SKY AND/OR WEATHER CONDITIONS ARE NOT AVAILABLE.

MNZ060>063-068>070-250700-
   Twin Cities Metro

CITY           SKY/WX    TMP DP  RH WIND       PRES   REMARKS
TWIN CITIES    FAIR      46  28  49 N13       30.24R
6HR MIN TEMP:  46; 6HR MAX TEMP:  56;

ST PAUL        FAIR      45  27  49 N9        30.25R
CRYSTAL        FAIR      43  26  51 N7        30.25R
BLAINE         FAIR      43  28  56 N8        30.25R
LAKEVILLE      FAIR      43  28  56 N9        30.23S
EDEN PRAIRIE   FAIR      45  26  47 N8        30.24R
6HR MIN TEMP:  45; 6HR MAX TEMP:  56;

SOUTH ST PAUL  FAIR      45  26  48 N8        30.24R
LAKE ELMO      FAIR      43  30  61 N6        30.25R
$$
MNZ001>005-007-008-013>017-022>024-027-028-250700-
   Northwest Minnesota

CITY           SKY/WX    TMP DP  RH WIND       PRES   REMARKS
BEMIDJI        FAIR      25  19  77 CALM      30.30F
HALLOCK        FAIR      30  21  69 S7        30.27F WCI  23
ROSEAU         FAIR      34  27  75 S7        30.28F WCI  28
WARROAD        FAIR      32  27  80 S3        30.28F
THIEF RVR FALL FAIR      31  27  85 SE3       30.30F
CROOKSTON      FAIR      32  28  86 S6        30.31F WCI  26
FOSSTON        FAIR      27  16  63 CALM      30.32S
DETROIT LAKES  FAIR      34  30  86 CALM      30.32S
MOORHEAD       FAIR      37  27  65 CALM      30.33S
PARK RAPIDS    FAIR      30  22  72 CALM      30.30S
MAHNOMEN       FAIR      31  27  84 CALM      30.31F
$$
MNZ006-009>011-018-025>026-250700-
   North Central Minnesota

CITY           SKY/WX    TMP DP  RH WIND       PRES   REMARKS
BAUDETTE       FAIR      29  24  82 S3        30.29S
FLAG ISLAND    FAIR      28  21  74 SE5       30.26F WCI  23
INTL FALLS     FAIR      24  21  88 CALM      30.29F
6HR MIN TEMP:  23; 6HR MAX TEMP:  43;

WASKISH        FAIR      27  23  86 CALM      30.30F
BIG FORK       FAIR      27  21  80 CALM      30.30S
LONGVILLE      FAIR      28  23  80 CALM      30.30S
GRAND RAPIDS   FAIR      28  22  78 CALM      30.31S
CRANE LAKE     FAIR      21  21 100 CALM      30.32S
ORR            FAIR      27  19  74 CALM      30.27S
COOK           FAIR      27  21  80 CALM      30.29S
WALKER         FAIR      32  21  63 W5        30.31S WCI  28
$$
MNZ012-019>021-037-250700-
   Northeast Minnesota

CITY           SKY/WX    TMP DP  RH WIND       PRES   REMARKS
DULUTH         FAIR      32  21  64 NW6       30.27S WCI  26
6HR MIN TEMP:  32; 6HR MAX TEMP:  51;

ELY            FAIR      27  21  80 CALM      30.28S
HIBBING        FAIR      24  20  84 NW6       30.28S WCI  17
EVELETH        FAIR      30  21  69 CALM      30.28S
DULUTH HARBOR  FAIR      36  27  69 N9        30.31R
TWO HARBORS    FAIR      30  21  69 NW3       30.27R
SILVER BAY     FAIR      28  25  86 CALM      30.27R
GRAND MARAIS     N/A     29  23  78 NW3       30.28S
G MARAIS ARPRT FAIR      28  19  69 N5        30.24R WCI  23
$$
MNZ029>031-032-039>041-046>048-054>057-064-250700-
   West Central Minnesota

CITY           SKY/WX    TMP DP  RH WIND       PRES   REMARKS
FERGUS FALLS   FAIR      36  27  69 CALM      30.30S
WHEATON        CLEAR     36  28  75 NW3       30.34S
MORRIS         CLEAR     34  28  80 N8        30.29S WCI  27
ALEXANDRIA     FAIR      40  25  55 NE10      30.30S
ELBOW LAKE     FAIR      33  28  80 NE3       30.31S
WADENA         FAIR      34  25  69 N3        30.31S
GLENWOOD       FAIR      37  27  65 N9        30.29S
APPLETON       CLEAR     37  30  75 NW5       30.31R
BENSON         CLEAR     30  28  93 N3        30.31S
ORTONVILLE     CLEAR     36  28  75 N7        30.32S
WILLMAR        FAIR      36  28  75 N7        30.31S
$$
MNZ033>034-036-042>043-049>051-058-059-250700-
   Central Minnesota

CITY           SKY/WX    TMP DP  RH WIND       PRES   REMARKS
ST CLOUD       FAIR      38  28  67 N9        30.27S
6HR MIN TEMP:  38; 6HR MAX TEMP:  57;

SAUK CENTRE    FAIR      36  24  62 N6        30.30R
PAYNESVILLE    FAIR      37  29  73 NE3       30.29R
AITKIN         FAIR      27  21  80 CALM      30.29S
PINE RIVER     FAIR      30  21  69 CALM      30.33S
BRAINERD       FAIR      35  23  61 N7        30.30S WCI  29
STAPLES        FAIR      28  23  80 CALM      30.31R
LONG PRAIRIE   FAIR      34  25  69 NW6       30.29F WCI  29
LITTLE FALLS   FAIR      36  19  51 N3        30.29S
LITCHFIELD     FAIR      39  28  65 N7        30.28S
BUFFALO        FAIR      41  27  55 N8        30.27R
MAPLE LAKE     FAIR      40  30  69 N8        30.27S
HUTCHINSON     FAIR      39  31  72 N9        30.28R
$$
MNZ037-044-045-052-053-250700-
   East Central Minnesota

CITY           SKY/WX    TMP DP  RH WIND       PRES   REMARKS
PRINCETON      FAIR      39  27  60 N7        30.28S
MORA           FAIR      37  23  56 N3        30.30R
CAMBRIDGE      FAIR      43  28  56 N5        30.28R
RUSH CITY      FAIR      38  26  62 N5        30.28R
MOOSE LAKE     FAIR      34  23  64 NE5       30.27S WCI  30
HINCKLEY       FAIR      36  27  69 N5        30.28S
CLOQUET        FAIR      32  19  59 NW5       30.28S WCI  27
MCGREGOR       FAIR      34  25  69 N3        30.30R
$$
MNZ071>073-080-081-089-090-097-098-250700-
   Southwest Minnesota

CITY           SKY/WX    TMP DP  RH WIND       PRES   REMARKS
MONTEVIDEO     CLEAR     37  30  75 N6        30.30S
GRANITE FALLS  CLEAR     40  32  73 NW10      30.31R
CANBY          CLEAR     37  32  83 NW8       30.32S
MARSHALL       CLEAR     35  31  85 NW10      30.30S WCI  27
REDWOOD FALLS  CLEAR     40  31  70 NW8       30.27R
OLIVIA         CLEAR     36  32  87 NW8       30.28R
PIPESTONE      CLEAR    N/A N/A N/A N9        30.28S
WINDOM         CLEAR     39  23  52 NW15      30.25S
WORTHINGTON    CLEAR     37  32  82 N14       30.26F
JACKSON        CLEAR     37  32  81 NW12      30.25S
TRACY          CLEAR     38  34  83 NW10      30.28S
SLAYTON        CLEAR     38  32  80 N14       30.28S
$$
MNZ065>067-074>077-082>085-091>093-250700-
   South Central Minnesota

CITY           SKY/WX    TMP DP  RH WIND       PRES   REMARKS
MANKATO        FAIR      38  32  79 N8        30.24S
NEW ULM        CLEAR     41  30  65 N6        30.25S
ST JAMES       CLEAR     37  34  87 NW10      30.26R
FAIRMONT       CLEAR     41  35  79 N13       30.24R
GLENCOE        FAIR      40  32  73 N7        30.26R
OWATONNA       FAIR      39  32  75 CALM      30.22S
WASECA         FAIR      36  32  87 NW7       30.23S
ALBERT LEA     FAIR      43  32  65 N6        30.20S
$$
MNZ078>079-086>088-094>096-250700-
   Southeast Minnesota

CITY           SKY/WX    TMP DP  RH WIND       PRES   REMARKS
ROCHESTER      FAIR      41  35  79 N6        30.19F
6HR MIN TEMP:  39; 6HR MAX TEMP:  58;

RED WING       FAIR      45  27  49 N8        30.21S
STANTON        FAIR      42  31  65 N7        30.21S
DODGE CENTER   FAIR      39  34  81 NW5       30.20F
WINONA         FAIR      43  36  75 CALM      30.18R
AUSTIN         FAIR      41  36  81 N3        30.19S
PRESTON        FAIR      42  33  72 N6        30.18F
$$
ABBREVIATIONS USED IN REMARKS
   TC - TEMPERATURES IN CELSIUS
  WCI - WIND CHILL INDEX
   HX - HEAT INDEX
  VSB - VISIBILITY
$$




USA.gov is the U.S. government's official web portal to all federal, state and local government web resources and services.